period_start,C,m1,H,J0,J1,J2,J3,J4,J5,JA,JB,JC,JD,JJ,JK,JN,#
2015-04-20 00:00:41,0.17,4.53,0.00,23.67,27.10,29.88,4.79,23.91,1021.50,2032.00,1988.14,2266.32,2449.13,350.57,349.17,31.58,0000 0000 0000 0000 000000
2015-04-20 00:05:42,0.08,4.54,0.00,23.68,27.10,29.88,4.82,23.98,1021.49,2032.00,1987.49,2265.99,2448.73,350.85,349.34,31.61,0000 0000 0000 0000 000000
2015-04-20 00:10:43,0.12,4.54,0.00,23.72,27.10,29.89,4.80,24.05,1021.42,2032.00,1986.82,2265.34,2448.04,349.90,348.38,31.63,0000 0000 0000 0000 000000
2015-04-20 00:15:45,0.08,4.54,0.00,23.76,27.11,29.88,4.82,23.92,1021.26,2032.00,1986.04,2264.97,2447.63,350.53,348.80,31.66,0000 0000 0000 0000 000000
2015-04-20 00:20:46,0.14,4.55,0.00,23.77,27.12,29.89,4.83,23.87,1021.19,2032.00,1985.34,2264.23,2446.98,350.62,348.82,31.69,0000 0000 0000 0000 000000
2015-04-20 00:25:47,0.12,4.55,0.00,23.81,27.12,29.90,4.73,23.93,1021.10,2032.00,1984.58,2263.76,2446.20,349.65,347.91,31.72,0000 0000 0000 0000 000000
2015-04-20 00:30:48,0.14,4.55,0.00,23.85,27.12,29.89,4.79,23.92,1021.03,2032.00,1983.71,2262.97,2445.43,350.13,348.13,31.75,0000 0000 0000 0000 000000
2015-04-20 00:35:49,0.14,4.56,0.00,23.85,27.14,29.89,4.75,23.96,1021.02,2031.99,1982.84,2262.13,2444.71,349.90,348.15,31.78,0000 0000 0000 0000 000000
2015-04-20 00:40:51,0.06,4.56,0.00,23.88,27.15,29.91,4.81,23.99,1021.02,2031.98,1982.05,2261.92,2444.03,350.15,348.29,31.81,0000 0000 0000 0000 000000
2015-04-20 00:45:52,0.15,4.56,0.00,23.93,27.15,29.90,4.83,24.00,1021.01,2031.97,1981.45,2261.13,2443.60,350.11,348.28,31.84,0000 0000 0000 0000 000000
2015-04-20 00:50:53,0.07,4.57,0.00,23.95,27.16,29.89,4.70,23.85,1021.01,2031.96,1980.77,2260.76,2442.98,349.58,347.72,31.87,0000 0000 0000 0000 000000
2015-04-20 00:55:55,0.14,4.57,0.00,23.96,27.17,29.90,4.81,23.93,1021.00,2031.97,1979.92,2260.04,2442.19,350.44,348.58,31.90,0000 0000 0000 0000 000000
2015-04-20 01:00:56,0.13,4.57,0.00,24.01,27.17,29.90,4.89,23.99,1021.00,2031.95,1979.06,2259.52,2441.67,350.54,348.62,31.93,0000 0000 0000 0000 000000
2015-04-20 01:05:58,0.09,4.58,0.00,24.06,27.19,29.91,4.72,23.84,1020.96,2031.93,1978.22,2259.01,2441.01,350.01,348.06,31.96,0000 0000 0000 0000 000000
2015-04-20 01:10:59,0.14,4.58,0.00,24.07,27.20,29.92,4.83,23.89,1020.91,2031.90,1977.61,2258.36,2440.43,350.20,348.14,31.99,0000 0000 0000 0000 000000
2015-04-20 01:16:00,0.07,4.58,0.00,24.09,27.20,29.93,4.79,23.87,1020.87,2031.87,1976.78,2257.90,2439.91,350.37,348.24,32.02,0000 0000 0000 0000 000000
2015-04-20 01:21:02,0.07,4.59,0.00,24.12,27.22,29.94,4.74,23.87,1020.80,2031.66,1975.94,2257.09,2439.09,349.77,347.70,32.04,0000 0000 0000 0000 000000
2015-04-20 01:26:03,0.11,4.59,0.00,24.15,27.22,29.95,4.68,23.73,1020.73,2031.38,1975.01,2256.48,2438.29,350.25,348.07,32.07,0000 0000 0000 0000 000000
2015-04-20 01:31:04,0.15,4.59,0.00,24.15,27.23,29.96,4.70,23.75,1020.60,2031.27,1974.04,2255.81,2437.51,349.62,347.32,32.10,0000 0000 0000 0000 000000
2015-04-20 01:36:05,0.09,4.60,0.00,24.18,27.25,29.98,4.75,23.83,1020.70,2031.18,1973.11,2255.04,2436.85,349.98,347.70,32.13,0000 0000 0000 0000 000000
2015-04-20 01:41:06,0.12,4.60,0.00,24.20,27.25,29.99,4.69,23.82,1020.73,2031.15,1972.52,2254.72,2436.10,349.85,347.51,32.16,0000 0000 0000 0000 000000
2015-04-20 01:46:08,0.08,4.60,0.00,24.21,27.26,29.98,4.75,23.88,1020.83,2031.09,1971.81,2254.04,2435.74,350.01,347.73,32.19,0000 0000 0000 0000 000000
2015-04-20 01:51:09,0.16,4.61,0.00,24.22,27.27,30.00,4.75,23.81,1020.95,2031.07,1970.72,2253.45,2434.98,350.28,348.11,32.22,0000 0000 0000 0000 000000
2015-04-20 01:56:10,0.07,4.61,0.00,24.24,27.28,30.01,4.80,23.87,1020.99,2031.04,1970.00,2252.98,2434.26,350.35,347.92,32.25,0000 0000 0000 0000 000000
2015-04-20 02:01:11,0.12,4.61,0.00,24.25,27.30,30.02,4.75,23.89,1021.00,2031.07,1969.43,2252.43,2433.99,350.27,347.95,32.28,0000 0000 0000 0000 000000
2015-04-20 02:06:13,0.04,4.62,0.00,24.26,27.30,30.01,4.69,23.88,1020.94,2031.03,1969.00,2252.01,2433.54,349.90,347.59,32.31,0000 0000 0000 0000 000000
2015-04-20 02:11:14,0.10,4.62,0.00,24.28,27.31,30.03,4.80,23.91,1020.93,2031.02,1968.31,2251.68,2432.98,350.28,348.01,32.34,0000 0000 0000 0000 000000
2015-04-20 02:16:15,0.10,4.62,0.00,24.32,27.32,30.04,4.73,23.93,1020.97,2031.01,1967.66,2251.03,2432.40,350.15,347.93,32.37,0000 0000 0000 0000 000000
2015-04-20 02:21:17,0.11,4.62,0.00,24.32,27.32,30.04,4.71,23.94,1020.94,2031.00,1966.83,2250.61,2431.98,349.70,347.57,32.40,0000 0000 0000 0000 000000
2015-04-20 02:26:18,0.10,4.63,0.00,24.33,27.35,30.05,4.83,23.95,1020.97,2031.00,1966.05,2250.03,2431.35,350.62,348.29,32.43,0000 0000 0000 0000 000000
2015-04-20 02:31:19,0.09,4.63,0.00,24.36,27.35,30.07,4.66,23.90,1020.96,2031.00,1965.47,2249.76,2430.99,349.14,346.78,32.46,0000 0000 0000 0000 000000
2015-04-20 02:36:21,0.12,4.63,0.00,24.38,27.36,30.08,4.75,23.93,1020.97,2031.00,1964.73,2249.05,2430.43,350.65,348.04,32.49,0000 0000 0000 0000 000000
2015-04-20 02:41:22,0.15,4.64,0.00,24.40,27.37,30.08,4.80,23.83,1020.99,2031.00,1963.65,2248.57,2429.80,349.88,347.38,32.51,0000 0000 0000 0000 000000
2015-04-20 02:46:24,0.11,4.64,0.00,24.42,27.37,30.08,4.78,23.80,1020.99,2031.00,1962.68,2248.01,2429.05,350.43,347.83,32.54,0000 0000 0000 0000 000000
2015-04-20 02:51:25,0.12,4.65,0.00,24.44,27.39,30.10,4.72,23.81,1020.99,2030.99,1962.03,2247.45,2428.56,349.78,347.34,32.57,0000 0000 0000 0000 000000
2015-04-20 02:56:26,0.08,4.65,0.00,24.45,27.40,30.11,4.68,23.82,1021.00,2030.97,1961.20,2247.00,2428.01,349.70,347.48,32.60,0000 0000 0000 0000 000000
2015-04-20 03:01:27,0.15,4.65,0.00,24.45,27.41,30.12,4.82,23.92,1021.00,2030.98,1960.61,2246.40,2427.48,350.02,347.59,32.63,0000 0000 0000 0000 000000
2015-04-20 03:06:29,0.04,4.65,0.00,24.46,27.42,30.13,4.67,23.85,1021.01,2030.99,1960.01,2246.00,2427.00,350.11,347.57,32.66,0000 0000 0000 0000 000000
2015-04-20 03:11:30,0.13,4.66,0.00,24.48,27.42,30.14,4.70,23.85,1021.01,2030.98,1959.28,2245.64,2426.45,350.11,347.55,32.69,0000 0000 0000 0000 000000
2015-04-20 03:16:31,0.08,4.66,0.00,24.50,27.44,30.17,4.76,23.83,1021.01,2030.93,1958.56,2245.02,2425.99,350.02,347.45,32.72,0000 0000 0000 0000 000000
2015-04-20 03:21:32,0.10,4.66,0.00,24.51,27.45,30.17,4.68,23.84,1020.99,2030.90,1957.96,2244.65,2425.40,349.58,347.06,32.75,0000 0000 0000 0000 000000
2015-04-20 03:26:33,0.06,4.67,0.00,24.53,27.46,30.18,4.83,23.98,1021.00,2030.83,1957.35,2244.03,2424.99,350.42,347.83,32.78,0000 0000 0000 0000 000000
2015-04-20 03:31:34,0.06,4.67,0.00,24.56,27.47,30.19,4.68,23.89,1020.91,2030.62,1956.80,2243.90,2424.35,350.03,347.43,32.81,0000 0000 0000 0000 000000
2015-04-20 03:36:36,0.03,4.67,0.00,24.58,27.47,30.19,4.80,23.87,1020.86,2030.38,1956.07,2243.16,2423.98,350.45,347.57,32.84,0000 0000 0000 0000 000000
2015-04-20 03:41:37,0.15,4.67,0.00,24.60,27.50,30.21,4.75,23.79,1020.82,2030.38,1955.23,2242.92,2423.39,349.99,347.39,32.87,0000 0000 0000 0000 000000
2015-04-20 03:46:38,0.03,4.67,0.00,24.61,27.50,30.21,4.83,23.82,1020.71,2030.29,1954.83,2242.15,2422.99,350.29,347.68,32.90,0000 0000 0000 0000 000000
2015-04-20 03:51:39,0.09,4.68,0.00,24.64,27.52,30.22,4.74,23.88,1020.56,2030.22,1954.04,2241.98,2422.38,349.88,347.10,32.93,0000 0000 0000 0000 000000
2015-04-20 03:56:41,0.05,4.68,0.00,24.66,27.52,30.23,4.60,23.79,1020.54,2030.06,1953.75,2241.43,2421.99,349.62,346.89,32.95,0000 0000 0000 0000 000000
2015-04-20 04:01:42,0.11,4.68,0.00,24.70,27.54,30.24,4.70,23.77,1020.56,2030.03,1953.03,2241.01,2421.35,349.67,346.58,32.98,0000 0000 0000 0000 000000
2015-04-20 04:06:43,0.11,4.68,0.00,24.70,27.55,30.24,4.78,23.81,1020.62,2030.02,1952.35,2240.65,2421.00,349.70,346.85,33.01,0000 0000 0000 0000 000000
2015-04-20 04:11:45,0.06,4.69,0.00,24.71,27.57,30.26,4.72,23.83,1020.62,2030.03,1951.94,2240.06,2420.59,349.62,346.89,33.04,0000 0000 0000 0000 000000
2015-04-20 04:16:46,0.08,4.69,0.00,24.70,27.57,30.26,4.76,23.83,1020.55,2030.01,1951.12,2239.89,2420.01,350.63,347.87,33.07,0000 0000 0000 0000 000000
2015-04-20 04:21:47,0.15,4.69,0.00,24.70,27.60,30.29,4.72,23.92,1020.54,2030.00,1950.50,2239.13,2419.41,350.20,347.17,33.10,0000 0000 0000 0000 000000
2015-04-20 04:26:49,0.03,4.69,0.00,24.71,27.60,30.32,4.65,23.94,1020.54,2030.00,1949.87,2238.97,2418.98,349.54,346.55,33.13,0000 0000 0000 0000 000000
2015-04-20 04:31:50,0.16,4.70,0.00,24.70,27.62,30.32,4.78,23.98,1020.53,2030.00,1949.08,2238.28,2418.25,350.27,347.26,33.16,0000 0000 0000 0000 000000
2015-04-20 04:36:51,0.06,4.70,0.00,24.70,27.62,30.34,4.67,23.96,1020.53,2030.00,1948.46,2237.99,2417.98,349.55,346.63,33.19,0000 0000 0000 0000 000000
2015-04-20 04:41:52,0.06,4.70,0.00,24.70,27.64,30.35,4.76,23.82,1020.53,2030.00,1947.97,2237.77,2417.42,350.05,347.18,33.22,0000 0000 0000 0000 000000
2015-04-20 04:46:54,0.13,4.71,0.00,24.70,27.65,30.35,4.72,23.83,1020.53,2030.00,1947.19,2237.06,2417.01,350.09,347.13,33.25,0000 0000 0000 0000 000000
2015-04-20 04:51:55,0.11,4.71,0.00,24.72,27.66,30.37,4.71,23.88,1020.52,2030.00,1946.61,2236.76,2416.42,349.58,346.65,33.28,0000 0000 0000 0000 000000
2015-04-20 04:56:56,0.07,4.71,0.00,24.72,27.67,30.36,4.84,23.88,1020.53,2029.99,1945.99,2236.04,2415.99,350.48,347.40,33.31,0000 0000 0000 0000 000000
2015-04-20 05:01:58,0.09,4.71,0.00,24.70,27.67,30.38,4.75,23.79,1020.53,2029.97,1945.33,2235.96,2415.48,349.55,346.66,33.34,0000 0000 0000 0000 000000
2015-04-20 05:06:59,0.08,4.72,0.00,24.71,27.69,30.39,4.65,23.77,1020.53,2029.97,1944.98,2235.29,2415.01,349.75,346.88,33.36,0000 0000 0000 0000 000000
2015-04-20 05:12:00,0.09,4.72,0.00,24.72,27.70,30.39,4.74,23.84,1020.53,2029.97,1944.39,2234.99,2414.61,350.24,347.35,33.39,0000 0000 0000 0000 000000
2015-04-20 05:17:02,0.06,4.72,0.00,24.75,27.70,30.40,4.64,23.81,1020.52,2029.92,1943.94,2234.68,2414.03,349.69,346.65,33.42,0000 0000 0000 0000 000000
2015-04-20 05:22:03,0.09,4.72,0.00,24.75,27.72,30.41,4.68,23.82,1020.52,2029.87,1943.11,2234.03,2413.77,350.39,347.27,33.45,0000 0000 0000 0000 000000
2015-04-20 05:27:05,0.08,4.73,0.00,24.74,27.72,30.42,4.68,23.90,1020.52,2029.89,1942.64,2233.91,2413.08,349.65,346.70,33.48,0000 0000 0000 0000 000000
2015-04-20 05:32:06,0.07,4.73,0.00,24.71,27.72,30.43,4.79,23.88,1020.52,2029.79,1942.02,2233.17,2412.90,350.26,347.42,33.51,0000 0000 0000 0000 000000
2015-04-20 05:37:07,0.07,4.73,0.00,24.72,27.73,30.43,4.71,23.92,1020.52,2029.70,1941.38,2232.99,2412.16,350.19,347.41,33.54,0000 0000 0000 0000 000000
2015-04-20 05:42:09,0.04,4.73,0.00,24.75,27.75,30.43,4.78,23.83,1020.51,2029.48,1940.92,2232.52,2411.99,350.37,347.32,33.57,0000 0000 0000 0000 000000
2015-04-20 05:47:10,0.12,4.74,0.00,24.75,27.75,30.45,4.66,23.77,1020.46,2029.63,1940.26,2232.02,2411.47,349.66,346.51,33.60,0000 0000 0000 0000 000000
2015-04-20 05:52:11,-0.02,4.74,0.00,24.73,27.75,30.44,4.80,23.78,1020.36,2029.40,1939.96,2231.99,2411.01,350.16,347.09,33.63,0000 0000 0000 0000 000000
2015-04-20 05:57:13,0.10,4.74,0.00,24.71,27.76,30.46,4.74,23.81,1020.28,2029.21,1939.19,2231.41,2410.67,350.44,347.16,33.66,0000 0000 0000 0000 000000
2015-04-20 06:02:14,0.06,4.74,0.00,24.73,27.77,30.47,4.73,23.87,1020.09,2029.15,1938.57,2231.00,2410.03,349.58,346.43,33.69,0000 0000 0000 0000 000000
2015-04-20 06:07:15,0.07,4.74,0.00,24.74,27.77,30.47,4.70,23.82,1020.08,2029.12,1938.00,2230.62,2409.78,349.66,346.68,33.72,0000 0000 0000 0000 000000
2015-04-20 06:12:16,0.10,4.75,0.00,24.74,27.77,30.47,4.74,23.82,1020.08,2029.04,1937.32,2230.02,2409.05,349.74,346.83,33.75,0000 0000 0000 0000 000000
2015-04-20 06:17:17,0.03,4.75,0.00,24.72,27.78,30.47,4.75,23.75,1020.06,2029.02,1936.96,2229.87,2408.85,349.79,346.68,33.77,0000 0000 0000 0000 000000
2015-04-20 06:22:18,0.17,4.75,0.00,24.72,27.79,30.48,4.78,23.79,1020.05,2029.05,1936.16,2229.10,2408.10,350.44,347.29,33.80,0000 0000 0000 0000 000000
2015-04-20 06:27:19,0.05,4.75,0.00,24.74,27.80,30.39,4.72,23.68,1020.06,2029.03,1935.56,2228.95,2407.91,350.17,346.83,33.83,0000 0000 0000 0000 000000
2015-04-20 06:32:20,0.12,4.76,0.00,24.75,27.80,30.39,4.79,23.77,1020.05,2029.00,1934.97,2228.30,2407.17,349.96,346.72,33.86,0000 0000 0000 0000 000000
2015-04-20 06:37:22,0.08,4.76,0.00,24.75,27.80,30.37,4.70,23.84,1020.04,2029.00,1934.14,2227.98,2406.75,349.56,346.51,33.89,0000 0000 0000 0000 000000
2015-04-20 06:42:23,0.09,4.76,0.00,24.76,27.80,30.42,4.73,23.74,1020.04,2029.00,1933.80,2227.56,2406.07,350.00,346.78,33.92,0000 0000 0000 0000 000000
2015-04-20 06:47:24,0.07,4.77,0.00,24.75,27.80,30.38,4.76,23.84,1020.04,2029.01,1933.03,2227.02,2405.99,350.08,346.94,33.95,0000 0000 0000 0000 000000
2015-04-20 06:52:25,0.10,4.77,0.00,24.72,27.82,30.38,4.69,23.76,1020.04,2029.00,1932.44,2226.89,2405.35,349.67,346.72,33.98,0000 0000 0000 0000 000000
2015-04-20 06:57:26,0.07,4.77,0.00,24.74,27.82,30.39,4.80,23.73,1020.04,2029.01,1931.98,2226.14,2405.00,350.32,347.19,34.01,0000 0000 0000 0000 000000
2015-04-20 07:02:28,0.09,4.77,0.00,24.77,27.82,30.40,4.69,23.76,1020.04,2029.00,1931.27,2225.98,2404.55,349.70,346.40,34.04,0000 0000 0000 0000 000000
2015-04-20 07:07:29,0.05,4.77,0.00,24.77,27.82,30.46,4.77,23.84,1020.04,2029.00,1930.94,2225.58,2404.01,350.04,346.76,34.07,0000 0000 0000 0000 000000
2015-04-20 07:12:30,0.12,4.78,0.00,24.75,27.82,30.51,4.78,23.85,1020.04,2029.00,1930.15,2225.03,2403.74,350.09,346.97,34.10,0000 0000 0000 0000 000000
2015-04-20 07:17:32,0.08,4.78,0.00,24.58,27.82,30.67,4.75,23.82,1020.04,2029.00,1929.51,2224.92,2403.09,349.73,346.75,34.13,0000 0000 0000 0000 000000
2015-04-20 07:22:33,0.08,4.78,0.00,24.39,27.82,30.64,4.76,23.87,1020.04,2029.00,1928.99,2224.27,2402.99,349.68,346.92,34.16,0000 0000 0000 0000 000000
2015-04-20 07:27:34,0.10,4.79,0.00,24.47,27.81,30.33,4.73,23.78,1020.04,2029.02,1928.30,2224.01,2402.51,350.31,347.37,34.19,0000 0000 0000 0000 000000
2015-04-20 07:32:35,0.04,4.79,0.00,24.65,27.80,30.30,4.78,23.84,1020.03,2029.06,1928.00,2223.99,2402.01,349.93,346.83,34.22,0000 0000 0000 0000 000000
2015-04-20 07:37:37,0.11,4.79,0.00,24.53,27.78,30.36,4.77,23.96,1020.04,2029.07,1927.32,2223.41,2401.95,349.92,346.90,34.24,0000 0000 0000 0000 000000
2015-04-20 07:42:38,0.05,4.79,0.00,24.45,27.77,30.42,4.72,23.86,1020.04,2029.09,1926.94,2223.01,2401.33,349.57,346.86,34.27,0000 0000 0000 0000 000000
2015-04-20 07:47:39,0.08,4.80,0.00,24.43,27.75,30.45,4.68,23.76,1020.04,2029.17,1926.19,2222.99,2401.01,349.36,346.71,34.30,0000 0000 0000 0000 000000
2015-04-20 07:52:41,0.14,4.80,0.00,24.43,27.72,30.42,4.75,23.78,1020.04,2029.44,1925.95,2222.39,2400.91,350.44,347.59,34.33,0000 0000 0000 0000 000000
2015-04-20 07:57:42,0.13,4.80,0.00,24.46,27.71,30.40,4.74,23.91,1020.04,2029.63,1925.21,2222.02,2400.23,349.87,347.08,34.36,0000 0000 0000 0000 000000
2015-04-20 08:02:43,-0.01,4.80,0.00,24.48,27.70,30.37,4.77,23.92,1020.04,2029.42,1924.76,2221.91,2399.99,350.18,347.28,34.39,0000 0000 0000 0000 000000
2015-04-20 08:07:44,0.21,4.81,0.00,24.54,27.67,30.36,4.85,23.84,1020.04,2029.76,1924.04,2221.32,2399.81,350.03,347.17,34.42,0000 0000 0000 0000 000000
2015-04-20 08:12:46,0.07,4.81,0.00,24.59,27.67,30.34,4.73,23.80,1020.04,2029.95,1923.78,2221.01,2399.09,350.27,347.23,34.45,0000 0000 0000 0000 000000
2015-04-20 08:17:47,0.05,4.81,0.00,24.62,27.65,30.31,4.77,23.88,1020.04,2029.96,1923.05,2220.96,2398.97,350.50,347.40,34.48,0000 0000 0000 0000 000000
2015-04-20 08:22:48,0.16,4.82,0.00,24.62,27.65,30.28,4.71,23.77,1020.04,2029.99,1922.51,2220.35,2398.31,349.96,346.82,34.51,0000 0000 0000 0000 000000
2015-04-20 08:27:50,0.03,4.82,0.00,24.64,27.65,30.27,4.72,23.79,1020.05,2029.99,1921.92,2220.00,2398.00,349.73,346.80,34.54,0000 0000 0000 0000 000000
2015-04-20 08:32:51,0.14,4.82,0.00,24.64,27.65,30.28,4.66,23.87,1020.05,2029.99,1921.14,2219.62,2397.51,349.94,346.79,34.57,0000 0000 0000 0000 000000
2015-04-20 08:37:52,0.10,4.83,0.00,24.63,27.64,30.31,4.73,23.93,1020.07,2029.99,1920.43,2219.02,2397.00,349.74,346.76,34.60,0000 0000 0000 0000 000000
2015-04-20 08:42:53,0.05,4.83,0.00,24.62,27.64,30.32,4.79,23.90,1020.11,2029.99,1919.99,2218.87,2396.54,350.76,347.73,34.63,0000 0000 0000 0000 000000
2015-04-20 08:47:54,0.13,4.83,0.00,24.62,27.64,30.32,4.69,23.89,1020.25,2029.98,1919.37,2218.11,2396.02,350.01,347.09,34.65,0000 0000 0000 0000 000000
2015-04-20 08:52:56,0.06,4.83,0.00,24.62,27.63,30.33,4.76,23.89,1020.38,2029.99,1918.82,2217.95,2395.62,349.61,346.66,34.68,0000 0000 0000 0000 000000
2015-04-20 08:57:57,0.13,4.68,0.00,24.62,27.63,30.34,4.33,21.49,1020.40,2030.09,1971.23,2254.01,2435.39,313.76,310.96,0.00,0000 0000 0000 0000 000002
2015-04-20 09:02:58,0.02,0.00,0.00,24.61,27.65,30.37,4.74,26.15,1020.41,2033.03,3510.70,3320.69,3606.11,349.07,346.32,0.00,0000 0000 0000 0000 000000
2015-04-20 09:08:00,0.03,0.00,0.00,24.60,27.64,30.36,4.85,26.17,1020.32,2033.04,3507.33,3319.15,3604.14,350.44,347.57,0.03,0000 0000 0000 0000 000000
2015-04-20 09:13:01,0.06,0.01,0.00,24.60,27.64,30.35,4.73,26.13,1020.14,2033.02,3504.06,3317.10,3601.66,349.76,346.72,0.06,0000 0000 0000 0000 000000
2015-04-20 09:18:02,0.11,0.01,0.00,24.59,27.64,30.36,4.81,26.13,1020.14,2033.03,3501.17,3315.25,3599.46,350.20,347.17,0.09,0000 0000 0000 0000 000000
2015-04-20 09:23:04,0.18,0.02,0.00,24.60,27.64,30.37,4.82,26.17,1020.07,2033.02,3497.91,3313.11,3597.00,350.49,347.32,0.12,0000 0000 0000 0000 000000
2015-04-20 09:28:05,0.14,0.02,0.00,24.60,27.63,30.37,4.80,26.07,1020.08,2033.02,3495.97,3311.98,3595.43,350.62,347.37,0.15,0000 0000 0000 0000 000000
2015-04-20 09:33:06,0.09,0.03,0.00,24.62,27.63,30.35,4.74,26.11,1020.09,2033.02,3494.83,3311.17,3594.61,350.33,347.37,0.18,0000 0000 0000 0000 000000
2015-04-20 09:38:08,0.09,0.03,0.00,24.60,27.62,30.35,4.71,26.18,1020.07,2033.01,3493.53,3310.35,3593.64,349.68,346.68,0.21,0000 0000 0000 0000 000000
2015-04-20 09:43:09,0.04,0.03,0.00,24.58,27.62,30.35,4.79,26.18,1020.08,2033.02,3492.62,3309.93,3592.97,349.88,346.88,0.24,0000 0000 0000 0000 000000
2015-04-20 09:48:10,0.08,0.03,0.00,24.57,27.62,30.34,4.67,26.13,1020.08,2033.02,3491.54,3309.10,3592.11,349.38,346.30,0.27,0000 0000 0000 0000 000000
2015-04-20 09:53:12,0.08,0.03,0.00,24.56,27.62,30.34,4.78,26.13,1020.08,2033.03,3490.53,3308.58,3591.28,349.99,347.03,0.30,0000 0000 0000 0000 000000
2015-04-20 09:58:13,0.06,0.04,0.00,24.55,27.62,30.34,4.79,26.14,1020.16,2033.05,3489.46,3307.93,3590.56,350.42,347.60,0.33,0000 0000 0000 0000 000000
2015-04-20 10:03:14,0.07,0.04,0.00,24.55,27.62,30.33,4.79,26.13,1020.26,2033.04,3488.36,3307.11,3589.73,350.33,347.44,0.36,0000 0000 0000 0000 000000
2015-04-20 10:08:15,0.07,0.04,0.00,24.55,27.62,30.34,4.80,26.24,1020.24,2033.02,3487.24,3306.43,3588.93,350.23,347.42,0.39,0000 0000 0000 0000 000000
2015-04-20 10:13:16,0.06,0.04,0.00,24.54,27.62,30.33,4.77,26.19,1020.27,2033.01,3486.12,3305.88,3588.07,349.89,346.92,0.41,0000 0000 0000 0000 000000
2015-04-20 10:18:17,0.08,0.05,0.00,24.52,27.62,30.33,4.80,26.17,1020.30,2033.02,3485.08,3305.06,3587.19,349.67,346.78,0.44,0000 0000 0000 0000 000000
2015-04-20 10:23:18,0.08,0.05,0.00,24.53,27.62,30.32,4.70,26.17,1020.24,2033.01,3484.05,3304.38,3586.47,350.10,347.10,0.47,0000 0000 0000 0000 000000
2015-04-20 10:28:20,0.06,0.05,0.00,24.55,27.62,30.31,4.79,26.16,1020.27,2033.02,3482.99,3303.83,3585.65,350.16,347.34,0.50,0000 0000 0000 0000 000000
2015-04-20 10:33:21,0.06,0.05,0.00,24.55,27.62,30.30,4.80,26.18,1020.22,2033.01,3482.00,3303.05,3584.98,349.96,347.14,0.53,0000 0000 0000 0000 000000
2015-04-20 10:38:22,0.09,0.05,0.00,24.54,27.62,30.30,4.71,26.20,1020.32,2033.01,3480.84,3302.42,3584.13,349.79,346.97,0.56,0000 0000 0000 0000 000000
2015-04-20 10:43:23,0.03,0.06,0.00,24.52,27.62,30.30,4.77,26.22,1020.41,2033.01,3479.95,3301.95,3583.49,350.14,347.34,0.59,0000 0000 0000 0000 000000
2015-04-20 10:48:24,0.08,0.06,0.00,24.54,27.62,30.31,4.81,26.17,1020.45,2033.01,3478.95,3301.13,3582.90,350.48,347.26,0.62,0000 0000 0000 0000 000000
2015-04-20 10:53:26,0.07,0.06,0.00,24.56,27.62,30.32,4.75,26.18,1020.40,2033.01,3477.90,3300.55,3582.07,349.92,346.94,0.65,0000 0000 0000 0000 000000
2015-04-20 10:58:27,0.07,0.06,0.00,24.62,27.62,30.32,4.74,26.17,1020.24,2033.00,3476.82,3299.92,3581.38,349.74,346.88,0.68,0000 0000 0000 0000 000000
2015-04-20 11:03:28,0.07,0.06,0.00,24.73,27.62,30.33,4.67,26.12,1020.25,2033.00,3475.83,3299.10,3580.58,349.28,346.16,0.71,0000 0000 0000 0000 000000
2015-04-20 11:08:30,0.07,0.07,0.00,24.80,27.62,30.33,4.71,26.06,1020.33,2033.01,3474.78,3298.57,3579.86,349.83,346.68,0.74,0000 0000 0000 0000 000000
2015-04-20 11:13:31,0.06,0.07,0.00,24.85,27.62,30.33,4.80,26.07,1020.43,2033.01,3473.79,3297.91,3579.04,350.48,347.31,0.77,0000 0000 0000 0000 000000
2015-04-20 11:18:32,0.08,0.07,0.00,24.85,27.62,30.32,4.79,26.11,1020.50,2033.01,3472.75,3297.12,3578.26,350.03,346.75,0.80,0000 0000 0000 0000 000000
2015-04-20 11:23:34,0.08,0.07,0.00,24.79,27.62,30.34,4.72,26.08,1020.45,2033.01,3471.72,3296.60,3577.50,349.74,346.70,0.83,0000 0000 0000 0000 000000
2015-04-20 11:28:35,0.04,0.08,0.00,24.69,27.62,30.34,4.80,26.13,1020.43,2033.00,3470.65,3295.98,3576.85,350.29,347.18,0.85,0000 0000 0000 0000 000000
2015-04-20 11:33:36,0.09,0.08,0.00,24.58,27.62,30.37,4.76,26.14,1020.41,2033.01,3469.54,3295.17,3576.04,349.61,346.75,0.88,0000 0000 0000 0000 000000
2015-04-20 11:38:38,0.09,0.08,0.00,24.47,27.61,30.40,4.72,26.16,1020.38,2033.01,3468.35,3294.32,3575.20,350.07,347.15,0.91,0000 0000 0000 0000 000000
2015-04-20 11:43:39,0.05,0.08,0.00,24.37,27.60,30.41,4.85,26.09,1020.42,2033.01,3467.49,3293.94,3574.49,350.23,347.62,0.94,0000 0000 0000 0000 000000
2015-04-20 11:48:41,0.08,0.08,0.00,24.29,27.60,30.42,4.70,26.10,1020.47,2033.00,3466.35,3293.11,3573.74,349.79,347.32,0.97,0000 0000 0000 0000 000000
2015-04-20 11:53:42,0.08,0.09,0.00,24.24,27.60,30.44,4.83,26.25,1020.51,2033.01,3465.28,3292.47,3572.97,350.13,347.74,1.00,0000 0000 0000 0000 000000
2015-04-20 11:58:43,0.06,0.09,0.00,24.19,27.58,30.44,4.79,26.18,1020.51,2033.03,3464.39,3291.96,3572.23,350.25,347.88,1.03,0000 0000 0000 0000 000000
2015-04-20 12:03:44,0.08,0.09,0.00,24.14,27.57,30.45,4.76,26.21,1020.52,2033.03,3463.36,3291.20,3571.53,350.02,347.59,1.06,0000 0000 0000 0000 000000
2015-04-20 12:08:46,0.06,0.09,0.00,24.09,27.57,30.43,4.72,26.19,1020.51,2033.05,3462.36,3290.77,3570.92,349.40,346.98,1.09,0000 0000 0000 0000 000000
2015-04-20 12:13:47,0.08,0.10,0.00,24.08,27.55,30.41,4.78,26.21,1020.50,2033.07,3461.26,3290.03,3570.08,350.35,348.17,1.12,0000 0000 0000 0000 000000
2015-04-20 12:18:48,0.08,0.10,0.00,24.06,27.55,30.40,4.79,26.18,1020.47,2033.11,3460.25,3289.34,3569.38,350.40,348.04,1.15,0000 0000 0000 0000 000000
2015-04-20 12:23:49,0.06,0.10,0.00,24.01,27.53,30.39,4.75,26.21,1020.46,2033.23,3459.32,3288.93,3568.82,350.20,348.01,1.18,0000 0000 0000 0000 000000
2015-04-20 12:28:50,0.09,0.10,0.00,23.98,27.52,30.38,4.82,26.22,1020.33,2033.29,3458.22,3288.12,3568.02,350.62,348.27,1.21,0000 0000 0000 0000 000000
2015-04-20 12:33:52,0.14,0.11,0.00,23.96,27.51,30.36,4.80,26.25,1020.29,2033.64,3457.22,3287.72,3567.34,350.14,347.95,1.23,0000 0000 0000 0000 000000
2015-04-20 12:38:53,0.06,0.11,0.00,23.94,27.50,30.34,4.82,26.28,1020.22,2033.62,3456.13,3286.99,3566.50,350.09,347.72,1.26,0000 0000 0000 0000 000000
2015-04-20 12:43:55,0.11,0.11,0.00,23.89,27.48,30.33,4.74,26.27,1020.11,2033.89,3455.22,3286.20,3565.97,350.08,347.99,1.29,0000 0000 0000 0000 000000
2015-04-20 12:48:56,0.06,0.11,0.00,23.87,27.47,30.32,4.74,26.24,1020.06,2033.96,3454.28,3285.87,3565.17,350.19,347.90,1.32,0000 0000 0000 0000 000000
2015-04-20 12:53:57,0.08,0.12,0.00,23.85,27.46,30.31,4.84,26.23,1020.05,2033.98,3453.31,3285.07,3564.58,350.14,348.00,1.35,0000 0000 0000 0000 000000
2015-04-20 12:58:58,0.07,0.12,0.00,23.82,27.45,30.29,4.79,26.13,1020.05,2033.98,3452.25,3284.37,3563.92,349.83,347.78,1.38,0000 0000 0000 0000 000000